Tracking 20092 objects as of 13-Dec-2019
HD Live streaming from Space Station
objects crossing your sky now

SCOUT A R/B

Track SCOUT A R/B now!
10-day predictions


NORAD ID: 2120
Int'l Code: 1966-024B
Perigee: 887.4 km
Apogee: 1,111.3 km
Inclination: 89.8 °
Period: 105.0 minutes
Semi major axis: 7370 km
RCS: 0.668 m2 (medium)
Launch date: March 26, 1966
Source: United States (US)
Launch site: AIR FORCE WESTERN TEST RANGE (AFWTR)

Note: This is a ROCKET BODY
aabbcc
Your satellite tracking list
Your tracking list is empty




NASA's NSSDC Master Catalog

Two Line Element Set (TLE):
1  2120U 66024B   19345.76876124  .00000066  00000-0  55005-4 0  9997
2  2120  89.7735 219.8720 0151911 160.5802 200.1237 13.72058777686063
Source of the keplerian elements: AFSPC